AO-07 1 07530U 74089B 26149.56278150 -.00000028 00000-0 11224-3 0 9993 2 07530 101.9904 162.6150 0012380 165.0102 313.6483 12.53697793358186 UO-11 1 14781U 84021B 26149.42740847 .00001330 00000-0 14114-3 0 9995 2 14781 97.8048 115.2138 0006158 240.7460 119.3143 14.90731432254336 AO-27 1 22825U 93061C 26149.40008662 .00000126 00000-0 64932-4 0 9993 2 22825 98.6885 216.8196 0008996 149.2534 210.9178 14.30936475704313 FO-29 1 24278U 96046B 26149.53148213 -.00000010 00000-0 23088-4 0 9994 2 24278 98.5258 0.9578 0350464 144.7282 217.7603 13.53273436470645 GO-32 1 25397U 98043D 26149.52021527 .00000075 00000-0 52450-4 0 9998 2 25397 99.0063 141.8088 0000222 282.7201 77.3953 14.24424346448670 ISS 1 25544U 98067A 26149.55005846 .00013186 00000-0 24294-3 0 9998 2 25544 51.6335 32.3640 0007320 111.3639 248.8131 15.49470900568868 NO-44 1 26931U 01043C 26149.51055145 .00000162 00000-0 91340-4 0 9997 2 26931 67.0512 292.5772 0006144 263.8259 96.2144 14.31948219287777 SO-50 1 27607U 02058C 26149.47628087 .00001157 00000-0 15354-3 0 9996 2 27607 64.5509 186.8750 0075571 265.8982 93.3484 14.83001684261682 CO-55 1 27844U 03031E 26148.99988317 .00000334 00000-0 16336-3 0 9999 2 27844 98.6738 157.8003 0008466 237.2714 122.7649 14.24322409188944 RS-22 1 27939U 03042A 26149.61055887 .00000878 00000-0 14361-3 0 9992 2 27939 98.3466 333.4458 0010680 334.0846 115.6100 14.73428719212815 CO-65 1 32785U 08021C 26149.48736034 .00007036 00000-0 44557-3 0 9997 2 32785 97.8264 130.5208 0010716 92.5057 267.7398 15.09248994982377 CO-66 1 32791U 08021J 26149.52559085 .00021952 00000-0 71111-3 0 9997 2 32791 97.7513 146.5426 0003683 52.1116 308.0457 15.32031065984431 RS-30 1 32953U 08025A 26149.58851159 .00000058 00000-0 34778-3 0 9996 2 32953 82.5059 7.0115 0019683 355.1546 4.9341 12.43178630817386 SRMSAT 1 37841U 11058D 26149.43222137 .00000403 00000-0 74886-4 0 9998 2 37841 19.9700 172.9909 0011766 358.8396 139.4248 14.11571196755162 ZACUBE-1 1 39417U 13066B 26149.47638492 .00005820 00000-0 45267-3 0 9997 2 39417 97.8104 111.7116 0040076 314.0891 45.7037 15.01036398677929 Delfi-N3xt 1 39428U 13066N 26149.30307882 .00008002 00000-0 70166-3 0 9998 2 39428 97.8344 69.6345 0073164 269.7537 89.5299 14.94853641671805 GOMX-1 1 39430U 13066Q 26149.52778281 .00003417 00000-0 51513-3 0 9990 2 39430 97.6496 351.1686 0129767 136.9461 224.1986 14.69377981667178 LO-74 1 39440U 13066AA 26149.44004088 .00004748 00000-0 44032-3 0 9995 2 39440 97.8896 98.3429 0059371 89.5592 271.2430 14.93590555674199 AO-73 1 39444U 13066AE 26149.49408465 .00008104 00000-0 50657-3 0 9991 2 39444 97.8261 120.5543 0034442 267.2617 92.4669 15.09224623676848 DTUSAT-2 1 40030U 14033W 26149.47897765 .00009572 00000-0 51983-3 0 9995 2 40030 98.0855 146.0226 0006388 306.0439 54.0199 15.14741896649851 LILACSAT-2 1 40908U 15049K 26149.62845316 .00021030 00000-0 36633-3 0 9997 2 40908 97.4667 185.7716 0005713 334.3386 25.7582 15.50762886592871 Horyu-4 1 41340U 16012D 26149.28564465 .00259921 00000-0 10929-2 0 9995 2 41340 30.9863 216.5210 0002593 151.8480 208.2319 15.83702095567807 Lapan A3 1 41603U 16040E 26149.65388247 .00004138 00000-0 13203-3 0 9998 2 41603 97.1480 146.4111 0012221 83.8040 276.4595 15.32973126551978 CAS-2T 1 41847U 16066G 26149.26249883 .00001763 00000-0 25572-3 0 9998 2 41847 98.3824 225.2140 0341931 186.7971 172.8521 14.44626429502067 TechnoSat 1 42829U 17042E 26149.43213324 .00004180 00000-0 29901-3 0 9990 2 42829 97.4267 307.8086 0018629 152.8799 207.3405 15.04831269483882 AO-91 1 43017U 17073E 26149.55251994 .00012618 00000-0 54968-3 0 9998 2 43017 97.4739 17.1522 0152591 33.6264 327.4536 15.12347064462578 S-Net D 1 43186U 18014G 26149.26179435 .00006466 00000-0 33526-3 0 9999 2 43186 97.5387 54.1720 0010107 85.4836 274.7552 15.16467166455891 S-Net B 1 43187U 18014H 26149.40485111 .00006766 00000-0 35085-3 0 9992 2 43187 97.5393 54.3000 0010725 81.3520 278.8928 15.16439041455919 S-Net A 1 43188U 18014J 26149.26077076 .00006489 00000-0 33632-3 0 9992 2 43188 97.5402 54.3622 0010636 82.1998 278.0442 15.16474678455895 S-Net C 1 43189U 18014K 26149.27665763 .00006936 00000-0 35954-3 0 9996 2 43189 97.5418 54.4497 0011924 75.8905 284.3652 15.16428614454444 Ten-Koh 1 43677U 18084G 26149.48149651 .00003705 00000-0 28121-3 0 9990 2 43677 98.0760 341.0563 0009627 177.1490 182.9790 15.02842626413352 PO-101 1 43678U 18084H 26149.63010464 .00003760 00000-0 30438-3 0 9992 2 43678 98.1143 345.0374 0011740 232.9104 127.1046 15.00353654413434 QO-100 1 43700U 18090A 26148.51188273 .00000154 00000-0 00000-0 0 9998 2 43700 0.0155 298.2229 0001907 160.0872 357.8371 1.00274787 27483 MinXSS-2 1 43758U 18099A 26149.19495226 .00045873 00000-0 95360-3 0 9997 2 43758 97.4548 224.9420 0006123 339.4626 20.6376 15.45499742411194 AO-95 1 43770U 18099N 26149.39556308 .00015498 00000-0 59955-3 0 9992 2 43770 97.4400 209.7160 0009851 61.8579 298.3653 15.26250877410353 SNUSat 2 1 43782U 18099AA 26148.67148075 .00010482 00000-0 46802-3 0 9998 2 43782 97.4076 202.3582 0010258 14.4388 345.7139 15.21497847410066 SnugLite 1 43784U 18099AC 26149.13948492 .00015192 00000-0 58051-3 0 9995 2 43784 97.3886 203.6118 0002868 32.1617 327.9796 15.26705045410412 ITASat 1 1 43786U 18099AE 26149.57592811 .00008750 00000-0 42279-3 0 9992 2 43786 97.4040 201.4610 0013923 62.5307 297.7341 15.18784392410083 EAGLET 1 1 43790U 18099AJ 26149.53316353 .00005302 00000-0 30530-3 0 9995 2 43790 97.4246 199.6967 0012442 56.2904 303.9511 15.12777635409518 ESEO 1 43792U 18099AL 26149.55423834 .00001502 00000-0 11217-3 0 9991 2 43792 97.3985 187.7408 0013379 44.2500 315.9793 15.04182736409008 JO-97 1 43803U 18099AX 26148.45249797 .00021394 00000-0 67363-3 0 9990 2 43803 97.4144 211.2270 0004799 356.8750 3.2461 15.32936130410607 Suomi 100 1 43804U 18099AY 26149.41386506 .00016429 00000-0 60399-3 0 9993 2 43804 97.4201 209.8816 0009310 355.9528 4.1635 15.27932054410550 ISAT 1 43879U 18111D 26149.28292862 .00103661 00000-0 11872-2 0 9992 2 43879 97.5896 83.0999 0005147 53.6179 306.5552 15.61763989408219 UWE-4 1 43880U 18111E 26149.24467912 .00040001 00000-0 85131-3 0 9998 2 43880 97.5863 76.7803 0009181 47.7018 312.5007 15.44813061407855 Sparrow 1 43881U 18111F 26149.34968817 .00147468 00000-0 12603-2 0 9998 2 43881 97.6126 88.4799 0006099 91.9772 268.2188 15.68999853408416 Prox-1 1 44339U 19036A 26149.51148584 .00015620 00000-0 15458-2 0 9999 2 44339 23.9949 238.9624 0006095 170.1565 189.9055 14.90117377370681 Taurus 1 1 44530U 19059C 26149.61754214 .00007085 00000-0 11396-2 0 9994 2 44530 98.6397 313.2982 0008343 19.4871 340.6652 14.71867395355916 TO-108 1 44881U 19093C 26149.60088525 .00000840 00000-0 10087-3 0 9994 2 44881 97.7538 222.2862 0014331 143.1016 217.1189 14.86482706348659 RS-44 1 44909U 19096E 26149.55431666 .00000037 00000-0 10248-3 0 9997 2 44909 82.5222 352.0893 0217319 187.6760 172.0998 12.79748499299968 SALSAT 1 46495U 20068K 26149.50204828 .00009866 00000-0 34742-3 0 9997 2 46495 97.8848 151.4338 0010071 19.1033 341.0582 15.29489999312504 CSS (TIANHE-1) 1 48274U 21035A 26149.22409814 .00021890 00000-0 26640-3 0 9999 2 48274 41.4692 77.3333 0010760 301.6014 58.3774 15.59946052290201 CUTE 1 49263U 21088D 26149.49319914 .00362010 00000-0 15262-2 0 9995 2 49263 97.4189 247.0759 0005127 264.1198 95.9487 15.84522435259584 TeikyoSat 4 1 49396U 21102B 26149.36054274 .00002905 00000-0 18517-3 0 9991 2 49396 97.3678 179.5758 0012052 6.2849 353.8529 15.09432643249887 Z-Sat 1 49399U 21102E 26149.61139374 .00004995 00000-0 24746-3 0 9999 2 49399 97.3342 185.4988 0015169 316.8510 43.1535 15.18107065250623 KOSEN 1 1 49402U 21102H 26149.06858179 .00009824 00000-0 37788-3 0 9990 2 49402 97.3201 191.5998 0011895 275.0864 84.9017 15.26533986251107 HO-113 1 50466U 21131B 26149.65840897 .00000712 00000-0 23350-3 0 9994 2 50466 98.4974 242.1492 0004911 141.2853 218.8688 14.41338048232449 SNUGLITE 2 1 52899U 22065F 26149.37660386 .00001200 00000-0 23652-3 0 9993 2 52899 98.2177 294.2435 0008774 84.9622 275.2582 14.64307095208241 UmKA 1 (RS40S) 1 57172U 23091G 26149.53802707 .00007561 00000-0 34763-3 0 9996 2 57172 97.5064 208.3090 0013005 177.5902 182.5399 15.20572165161174 CubeBel-2 (EU11S) 1 57175U 23091K 26149.59667721 .00015558 00000-0 55965-3 0 9992 2 57175 97.5065 212.6532 0010434 172.6768 187.4626 15.28652243161469 RS-38S 1 57189U 23091Z 26149.57749669 .00020120 00000-0 58676-3 0 9990 2 57189 97.5105 218.6978 0008740 132.9419 227.2559 15.35355521161834 SONATE-2 1 59112U 24043Q 26149.38395000 .00045786 00000-0 62823-3 0 9995 2 59112 97.5509 298.6503 0006031 263.0916 96.9652 15.57197917124966 GRBBeta 1 60237U 24128C 26149.50333245 .00006052 00000-0 41364-3 0 9996 2 60237 61.9907 281.8111 0043163 130.8355 229.6493 15.06473752103454 Curium One 1 60242U 24128H 26149.52529103 .00011234 00000-0 64529-3 0 9990 2 60242 61.9792 271.8574 0042409 127.1171 233.3812 15.12194014103636 ROBUSTA-3A 1 60243U 24128J 26149.54596019 .00011747 00000-0 68885-3 0 9991 2 60243 61.9870 274.1525 0043816 124.6284 235.8955 15.11365821103603 CatSat 1 60246U 24125J 26149.50823600 .00062474 00000-0 87370-3 0 9999 2 60246 97.2104 1.7960 0021386 247.5402 112.3588 15.56358119104489 HYPERVIEW-1G (RS66S) 1 61772U 24199AP 26149.61924051 .00120341 00000-0 95139-3 0 9999 2 61772 97.2915 28.4649 0003409 6.8520 353.2789 15.70989368131758 AO-123 1 61781U 24199AY 26149.59267180 .00010044 00000-0 29364-3 0 9994 2 61781 97.3028 18.4333 0014450 23.0103 337.1785 15.35371356131074 JINJUSat 1B 1 63210U 25052A 26148.69668488 .00020242 00000-0 64015-3 0 9991 2 63210 97.4034 45.4333 0004665 131.9188 228.2452 15.32808610 67119 NUSHSAT 1 1 63211U 25052B 26149.22697826 .00025575 00000-0 75055-3 0 9990 2 63211 97.4012 46.4667 0004562 130.4748 229.6893 15.35134307 67234 TEVEL2-4 1 63213U 25052D 26149.26838978 .00024143 00000-0 73796-3 0 9991 2 63213 97.3938 45.6367 0003658 139.3670 220.7846 15.33861049 67213 TEVEL2-5 1 63214U 25052E 26149.15633884 .00022741 00000-0 69908-3 0 9991 2 63214 97.3928 45.4775 0003537 140.4500 219.7002 15.33693415 67194 TEVEL2-6 1 63215U 25052F 26149.23345762 .00023498 00000-0 72294-3 0 9998 2 63215 97.3933 45.5393 0003685 139.5375 220.6143 15.33659776 67202 TEVEL2-1 1 63217U 25052H 26149.25606875 .00022821 00000-0 71351-3 0 9999 2 63217 97.3907 45.2087 0003265 148.8411 211.3025 15.33154308 67195 TEVEL2-3 1 63218U 25052J 26149.25136705 .00023170 00000-0 72320-3 0 9995 2 63218 97.3913 45.2234 0003324 150.5899 209.5531 15.33205083 67191 TEVEL2-2 1 63219U 25052K 26149.25648118 .00023007 00000-0 71912-3 0 9997 2 63219 97.3907 45.2110 0003244 150.6875 209.4549 15.33161045 67191 TEVEL2-9 1 63237U 25052AD 26149.27513319 .00021454 00000-0 71197-3 0 9992 2 63237 97.3970 44.6452 0005522 189.1188 170.9954 15.31243291 67136 TEVEL2-7 1 63238U 25052AE 26149.24715104 .00021120 00000-0 70704-3 0 9999 2 63238 97.3974 44.5409 0005645 189.9993 170.1136 15.30963779 67122 TEVEL2-8 1 63239U 25052AF 26149.25519930 .00021251 00000-0 71175-3 0 9998 2 63239 97.3976 44.5273 0005571 191.1221 168.9898 15.30947181 67120 SPIRONE 1 66657U 25274H 26149.36153477 .00003112 00000-0 30079-3 0 9997 2 66657 97.7486 78.9231 0013897 78.5612 281.7168 14.93457886 27412 K-HERO 1 66660U 25274L 26148.76857759 .00002432 00000-0 23371-3 0 9999 2 66660 97.7491 78.4855 0015654 83.7336 276.5666 14.93875998 27337 SNUGLITE-III DURI 1 66661U 25274M 26149.35974398 .00002919 00000-0 27900-3 0 9997 2 66661 97.7492 79.0886 0016394 83.1900 277.1185 14.93929728 27427 SAKHACUBE-CHOLBON 1 67290U 25313AU 26148.66858785 .00013001 00000-0 53080-3 0 9996 2 67290 97.3943 223.9521 0010528 70.6399 289.5976 15.24480882 23008 RS95S (QMR-KWT-2) 1 67291U 25313AV 26149.19843939 .00018873 00000-0 74066-3 0 9990 2 67291 97.3944 224.6131 0010112 68.4953 291.7362 15.25727657 23093 Ten-Koh2 1 68261U 25241B 26148.93085191 .00008999 00000-0 38367-3 0 9999 2 68261 51.6642 51.2569 0006624 85.7333 274.4402 15.23636324 11970 JACK-002 1 68417U 26067B 26149.45635860 .00008287 00000-0 39764-3 0 9993 2 68417 97.4554 108.2832 0002422 38.0174 322.1231 15.19126181 9108 DISCO 2 1 68431U 26067R 26149.40735905 .00009987 00000-0 48361-3 0 9996 2 68431 97.4591 108.2249 0004206 75.8031 284.3670 15.18747823 9095 HADES-SA (SpinnyONE) 1 68446U 26067AG 26149.11463270 .00023678 00000-0 11531-2 0 9994 2 68446 97.4398 107.7083 0008867 129.7926 230.4090 15.18324433 9035 PARUS-6U1 1 68456U 26067AS 26149.46045988 .00006568 00000-0 33271-3 0 9990 2 68456 97.4541 108.1164 0007299 119.6932 240.5029 15.17291554 9090 SAL-E 1 68458U 26067AU 26149.39246355 .00009420 00000-0 47340-3 0 9997 2 68458 97.4468 107.9984 0007492 126.9634 233.2286 15.17451279 9087 FSI-SAT 2 1 68792U 26088A 26149.35898952 .00006432 00000-0 43649-3 0 9991 2 68792 97.5043 299.0959 0014918 167.0658 193.0955 15.06657378 5455 OrigamiSat 2 1 68795U 26088D 26149.39001932 .00004093 00000-0 26770-3 0 9999 2 68795 97.5041 299.2134 0017016 142.1772 218.0656 15.08214990 5464 ARICA 2 1 68796U 26088E 26149.38731570 .00005201 00000-0 33878-3 0 9996 2 68796 97.5030 299.2066 0016824 139.5861 220.6621 15.08244698 5461 WASEDA-SAT-ZERO-II 1 68797U 26088F 26149.38530211 .00007885 00000-0 50939-3 0 9993 2 68797 97.5026 299.2087 0016650 139.5665 220.6804 15.08386993 5467 MANGARO-II-Piscus 1 68798U 26088G 26149.37802586 .00005522 00000-0 35529-3 0 9994 2 68798 97.5036 299.2227 0020091 142.9542 217.3078 15.08618020 5466 IO-86 1 40931U 25360.30710720 .00000000 00000-0 12800-3 0 00 2 40931 6.0006 332.5373 0012733 338.8432 8.1437 14.79075515 01 LILIUM-4 1 71922C 26067AC 26089.50133053 -.00014632 00000 0 -74472-3 0 04 2 71922 97.4497 49.1617 0004341 5.9603 355.7042 15.16896692 16